Weather History for Grand Etang, NS

Change the Weather History Date:

Monday, November 19, 2012

  Actual Average Record
Temperature  
Mean Temperature 38 °F -  
Max Temperature 42 °F - - ()
Min Temperature 34 °F - - ()
Degree Days  
Heating Degree Days 27    
Moisture  
Dew Point 30 °F    
Average Humidity 73    
Maximum Humidity 86    
Minimum Humidity 60    
Precipitation  
Precipitation 0.00 in - - ()
Sea Level Pressure  
Sea Level Pressure 30.47 in    
Wind  
Wind Speed 9 mph ()    
Max Wind Speed 16 mph    
Max Gust Speed -    
T = Trace of Precipitation, MM = Missing Value Source: Averaged Metar Reports

Daily Weather History Graph

Daily Weather History Graph

Search for Another Location

Airport:

Trip Planner

Search our weather history database for the weather conditions in past years. The results will help you decide how hot, cold, wet, or windy it might be!

Date:

Astronomy

Nov. 19, 2012 Rise Set
Actual Time 7:12 AM AST 4:26 PM AST
Civil Twilight 6:39 AM AST 4:59 PM AST
Nautical Twilight 6:02 AM AST 5:36 PM AST
Astronomical Twilight 5:26 AM AST 6:12 PM AST
Moon 12:04 PM AST (11/19) 10:57 PM AST (11/19)
Length of Visible Light 10h 20m
Length of Day
9h 14m
Waxing Crescent, 40% of the Moon is Illuminated
Nov 19
Waxing Crescent
Nov 20
First Quarter
Nov 28
Full
Dec 6
Last Quarter
Dec 13
New

Hourly Weather History & Observations

Time (AST) Temp. Windchill Dew Point Humidity Pressure Visibility Wind Dir Wind Speed Gust Speed Precip Events Conditions
12:00 AM 35.2 °F 27.1 °F 25.5 °F 68% 30.63 in - WNW 11.5 mph - N/A   Unknown
12:20 AM 35.4 °F 29.0 °F 26.4 °F 70% - - NW 8.1 mph - N/A   Unknown
12:40 AM 35.6 °F 28.0 °F 26.8 °F 70% - - WNW 10.4 mph - N/A   Unknown
1:00 AM 35.4 °F 27.3 °F 26.4 °F 70% 30.63 in - NW 11.5 mph - N/A   Unknown
1:20 AM 35.6 °F 30.7 °F 27.1 °F 71% - - WNW 5.8 mph - N/A   Unknown
1:40 AM 35.6 °F 29.2 °F 27.0 °F 71% - - WNW 8.1 mph - N/A   Unknown
2:00 AM 35.8 °F 28.8 °F 27.5 °F 72% 30.62 in - WNW 9.2 mph - N/A   Unknown
2:20 AM 35.6 °F 29.2 °F 26.8 °F 70% - - WNW 8.1 mph - N/A   Unknown
2:40 AM 35.6 °F 28.0 °F 27.0 °F 71% - - West 10.4 mph - N/A   Unknown
3:00 AM 35.1 °F 26.9 °F 26.1 °F 70% 30.61 in - West 11.5 mph - N/A   Unknown
3:20 AM 35.1 °F 30.1 °F 26.2 °F 70% - - West 5.8 mph - N/A   Unknown
3:40 AM 35.4 °F 29.7 °F 27.1 °F 72% - - West 6.9 mph - N/A   Unknown
4:00 AM 35.6 °F 27.5 °F 27.1 °F 71% 30.59 in - West 11.5 mph - N/A   Unknown
4:20 AM 34.9 °F 29.9 °F 25.9 °F 70% - - West 5.8 mph - N/A   Unknown
4:40 AM 35.4 °F 27.8 °F 26.4 °F 70% - - West 10.4 mph - N/A   Unknown
5:00 AM 35.6 °F 27.5 °F 27.1 °F 71% 30.58 in - West 11.5 mph - N/A   Unknown
5:20 AM 35.4 °F 30.5 °F 26.8 °F 71% - - West 5.8 mph - N/A   Unknown
5:40 AM 35.8 °F 30.9 °F 27.1 °F 71% - - West 5.8 mph - N/A   Unknown
6:00 AM 36.0 °F 28.5 °F 27.0 °F 70% 30.56 in - West 10.4 mph - N/A   Unknown
6:20 AM 36.3 °F 30.1 °F 27.5 °F 70% - - West 8.1 mph - N/A   Unknown
6:40 AM 36.9 °F 30.1 °F 28.2 °F 71% - - West 9.2 mph - N/A   Unknown
7:00 AM 37.6 °F 30.5 °F 29.3 °F 72% 30.55 in - West 10.4 mph - N/A   Unknown
7:20 AM 37.4 °F 30.3 °F 29.1 °F 72% - - West 10.4 mph - N/A   Unknown
7:40 AM 37.4 °F 30.8 °F 28.9 °F 71% - - West 9.2 mph - N/A   Unknown
8:00 AM 37.4 °F 29.3 °F 28.8 °F 71% 30.54 in - West 12.7 mph - N/A   Unknown
8:20 AM 37.6 °F 30.5 °F 28.4 °F 69% - - West 10.4 mph - N/A   Unknown
8:40 AM 38.1 °F 31.7 °F 29.7 °F 72% - - WSW 9.2 mph - N/A   Unknown
9:00 AM 38.5 °F 30.7 °F 30.6 °F 73% 30.53 in - West 12.7 mph - N/A   Unknown
9:20 AM 38.5 °F 31.6 °F 30.0 °F 72% - - WSW 10.4 mph - N/A   Unknown
9:40 AM 38.7 °F 31.4 °F 29.8 °F 71% - - West 11.5 mph - N/A   Unknown
10:00 AM 38.7 °F 30.9 °F 30.2 °F 72% 30.52 in - WSW 12.7 mph - N/A   Unknown
10:20 AM 38.8 °F 31.6 °F 30.0 °F 71% - - WSW 11.5 mph - N/A   Unknown
10:40 AM 41.0 °F 34.3 °F 30.9 °F 67% - - WSW 11.5 mph - N/A   Unknown
11:00 AM 40.8 °F 33.7 °F 29.5 °F 64% 30.50 in - SW 12.7 mph - N/A   Unknown
11:20 AM 40.8 °F 35.0 °F 28.6 °F 62% - - SW 9.2 mph - N/A   Unknown
11:40 AM 41.7 °F 35.2 °F 28.8 °F 60% - - WSW 11.5 mph - N/A   Unknown
12:00 PM 41.0 °F 34.3 °F 28.6 °F 61% 30.47 in - SW 11.5 mph - N/A   Unknown
12:20 PM 41.5 °F 35.0 °F 30.2 °F 64% - - SW 11.5 mph - N/A   Unknown
12:40 PM 41.0 °F 35.2 °F 29.7 °F 64% - - SW 9.2 mph - N/A   Unknown
1:00 PM 39.9 °F 32.9 °F 27.9 °F 62% 30.44 in - SW 11.5 mph - N/A   Unknown
1:20 PM 41.7 °F 36.1 °F 28.8 °F 60% - - WSW 9.2 mph - N/A   Unknown
1:40 PM 41.4 °F 35.7 °F 28.8 °F 61% - - SW 9.2 mph - N/A   Unknown
2:00 PM 42.1 °F 36.1 °F 30.9 °F 65% 30.41 in - SW 10.4 mph - N/A   Unknown
2:20 PM 41.0 °F 35.2 °F 31.6 °F 69% - - SW 9.2 mph - N/A   Unknown
2:40 PM 40.6 °F 34.8 °F 31.3 °F 69% - - SW 9.2 mph - N/A   Unknown
3:00 PM 41.5 °F 35.4 °F 31.6 °F 68% 30.38 in - SW 10.4 mph - N/A   Unknown
3:20 PM 41.4 °F 36.8 °F 31.5 °F 68% - - SW 6.9 mph - N/A   Unknown
3:40 PM 41.5 °F 35.9 °F 32.9 °F 71% - - SW 9.2 mph - N/A   Unknown
4:00 PM 40.5 °F 34.6 °F 31.8 °F 71% 30.36 in - SW 9.2 mph - N/A   Unknown
4:20 PM 38.5 °F 32.7 °F 30.6 °F 73% - - SSW 8.1 mph - N/A   Unknown
4:40 PM 36.5 °F 31.0 °F 29.7 °F 76% - - South 6.9 mph - N/A   Unknown
5:00 PM 35.2 °F 28.1 °F 29.7 °F 80% 30.35 in - SSE 9.2 mph - N/A   Unknown
5:20 PM 35.2 °F 28.8 °F 30.0 °F 81% - - SSE 8.1 mph - N/A   Unknown
5:40 PM 35.8 °F 29.4 °F 30.7 °F 82% - - SSE 8.1 mph - N/A   Unknown
6:00 PM 36.3 °F 30.1 °F 31.5 °F 83% 30.33 in - SSE 8.1 mph - N/A   Unknown
6:20 PM 36.5 °F 30.3 °F 31.8 °F 83% - - SSE 8.1 mph - N/A   Unknown
6:40 PM 36.1 °F 30.6 °F 31.5 °F 83% - - SSE 6.9 mph - N/A   Unknown
7:00 PM 36.0 °F 29.6 °F 31.6 °F 84% 30.31 in - SSE 8.1 mph - N/A   Unknown
7:20 PM 35.8 °F 29.4 °F 31.5 °F 84% - - SSE 8.1 mph - N/A   Unknown
7:40 PM 36.9 °F 30.7 °F 31.8 °F 82% - - SSE 8.1 mph - N/A   Unknown
8:00 PM 36.7 °F 30.5 °F 31.8 °F 83% 30.30 in - SSE 8.1 mph - N/A   Unknown
8:20 PM 36.9 °F 30.7 °F 31.5 °F 81% - - SSE 8.1 mph - N/A   Unknown
8:40 PM 36.1 °F 30.6 °F 32.0 °F 85% - - SSE 6.9 mph - N/A   Unknown
9:00 PM 35.8 °F 29.4 °F 32.0 °F 86% 30.28 in - South 8.1 mph - N/A   Unknown
9:20 PM 35.2 °F 28.1 °F 31.3 °F 85% - - SSE 9.2 mph - N/A   Unknown
9:40 PM 37.0 °F 31.0 °F 31.8 °F 81% - - SSE 8.1 mph - N/A   Unknown
10:00 PM 37.2 °F 30.6 °F 31.8 °F 81% 30.26 in - South 9.2 mph - N/A   Unknown
10:20 PM 41.9 °F 34.3 °F 36.1 °F 80% - - WSW 15.0 mph - N/A   Unknown
10:40 PM 42.3 °F 34.4 °F 36.3 °F 79% - - WSW 16.1 mph - N/A   Unknown
11:20 PM 42.3 °F 34.8 °F 36.1 °F 79% - - WSW 15.0 mph - N/A   Unknown